Tracking 35274 objects as of 11-Sep-2026
HD Live streaming from Space Station
objects crossing your sky now

OPS 4995


OPS 4995 is no longer on orbit


NORAD ID: 3012
Int'l Code: 1967-103A
Launch date: October 25, 1967
Source: United States (US)
Launch site: AIR FORCE WESTERN TEST RANGE (AFWTR)
Decay date: 1967-11-05
Your satellite tracking list
Your tracking list is empty




NASA's NSSDC Master Catalog

Two Line Element Set (TLE):
1 03012U 67103  A 67307.83240532  .01376356 +00000-0 +00000-0 0  9994
2 03012 111.5203 035.8242 0188215 120.4088 241.5745 16.08053499001456
Source of the keplerian elements: AFSPC